STARLINK-33782, 64332

Orbit data source: Space-Track

STARLINK-33782, 64332 is a payload satellite owned by SpaceX/Seattle (US) in LEO that was launched on Tue, 10 Jun 2025 UTC via an FALCON 9 launch vehicle from the Air Force Eastern Test Range (AFETR). Payload-class satellites include a variety of spacecraft equipped with specific instruments for various scientific and technological missions. These include communications satellites like Starlink; space stations such as the ISS; scientific satellites like the Hubble; Earth observation satellites from companies like Planet Labs, Umbra, and HawkEye 360; GPS; miniature CubeSats for education and research; and military/defense satellites.

Loading next visibility...
Identifier
64332, 2025-124R
Orbit
LEO
Country
Flag of USUS
Related business
Manufacturer
SpaceX/Seattle
Mission
Operational Commercial Communications
Bus & Motor
STARLINK V2MO, Unknown motor
Mass
575 kg wet, ~530 kg dry
Launch date (UTC)
2025-06-10 (11 months ago)
Launch vehicle
FALCON 9
Launch site
Air Force Eastern Test Range (AFETR)
Object type
Payload
Rocket body
Debris
Shape & HBR
Box + 2 Pan, 17.7 m
Radar Cross Section
36.964 m², Large (>1 m²)

Expand to show TLE details & history
Last TLE update: 9 hours ago

TLE from 9 hours ago
0 STARLINK-33782
1 64332U 25124R   26119.89970607  .00016573  00000-0  61019-3 0  9999
2 64332  42.9994 192.3847 0001735 274.9780  85.0874 15.27592576 49615
Epoch: 2026-04-29T21:35Z
TLE epoch observation values (Epoch: 2026-04-29T21:35:34.604Z)
Latitude
0.00001°
Longitude
10.63649°
Altitude
482.685 km
Speed
7.626 km/s
True Right ascension
12h 49m 32s
True Declination
0° 00' 00"
Sunlit
Object was in full shadow at epoch
Visualization orbit readout
Latitude
Unknown
Longitude
Unknown
Altitude
Unknown
Speed
Unknown
Apparent Right ascension
Unknown
Apparent Declination
Unknown
Sunlit
N/A
Visualization observer readout
Local Sidereal Time
13:38:52
Azimuth
Unknown
Elevation
Unknown
Doppler factor
Unknown
Orbital elements
Apogee altitude
486.147 km
Perigee altitude
483.766 km
Semi-major axis
6,863.094 km
Eccentricity
0.00017
Inclination
42.9994°
RAAN
192.3847°
Arg. of periapsis
274.978°
True anomaly
85.10721°
Mean anomaly
85.0874°
Eccentric anomaly
85.0973°
Mean motion
3.81736 °/min
Orbital period
94.31 mins
BSTAR
0.00061019
Loading maneuver chart data...
Computing Atmospheric mass density...
Loading historical data...
Loading historical data...
Loading historical data...
Loading historical data...
Loading historical data...
Loading historical data...
Loading historical data...

Documentation

Showing up to 5 results
|